AST BLUEBIRD 8

导读

AST BLUEBIRD 8(NORAD编号69589)是美国AST SpaceMobile公司研发的第二代Block 2型低轨直连通信卫星,2026年6月17日搭乘SpaceX猎鹰9号火箭从佛罗里达州卡纳维拉尔角成功发射入轨。 该卫星配备约223平方米的超大通信天线阵列,数据处理能力为第一代卫星的10倍以上,峰值传输速率提升近一倍,可直接为未改装的普通智能手机提供4G/5G语音、数据及视频服务,主要用于覆盖深山、海洋等传统蜂窝信号盲区。目前卫星运行于低地球轨道,将与同期发射的蓝鸟9号、10号共同推进全球直连网络测试,为2027年商业服务落地提供支撑。

Basic Information
目录编号:
69589
目录名称:
SPACEMOBILE-008
国际标识:
2026-139A
轨道中心:
EARTH
卫星名称:
AST BLUEBIRD 8
卫星全名:
AST BLUEBIRD 8
卫星状态:
在轨 (已飞行86 天)
发射日期:
2026-06-17 UTC
国别 :
美国 (US)
星等 :
--
Orbit Information
数据来源 国际轨道数据 AOE轨道数据
星历时间 2026-09-10T18:17:05+0800
18小时前
查看轨道信息
2026-09-10T00:00:00+0800
1天前
查看轨道信息
半长轴 6905.314km 6905.273km
偏心率 0.0002957 0.0002997
轨道倾角 52.995° 52.994°
近地点辐角 207.422° 207.806°
升交点赤经 235.528° 238.989°
平近点角 152.662° 320.375°
近地点 525.135km 525.066km
远地点 529.219km 529.206km
周期 95.178分钟 95.177分钟
每日圈数 15.129607 15.129743
Detailed Information
使用方式:
暂无
2D Orbit Map
3D Orbit Map
Orbit Altitude Analysis Chart
Orbit Inclination Analysis Chart
Orbit Comprehensive Analysis Chart
View Comprehensive Chart
Miss Distance Evolution Trend with All Objects
Collision Probability Evolution Trend with All Objects